owner,sensor,date,latitude,longitude,vertical_datum,sea_water_practical_salinity,qcFlag 
SCCF RECON,ioos:station:SCCF:13:1,2009-09-08T19:00:00Z,26.5255,-82.0032,2.53,17.71,1111122 
SCCF RECON,ioos:station:SCCF:13:1,2009-09-08T20:00:00Z,26.5255,-82.0032,2.58,22.49,1111122 
SCCF RECON,ioos:station:SCCF:13:1,2009-09-08T21:00:00Z,26.5255,-82.0032,2.598,25.78,1111122 
SCCF RECON,ioos:station:SCCF:13:1,2009-09-08T22:00:00Z,26.5255,-82.0032,2.57,26.16,1111122 
SCCF RECON,ioos:station:SCCF:13:1,2009-09-08T23:00:00Z,26.5255,-82.0032,2.53,27.71,1111122 
SCCF RECON,ioos:station:SCCF:13:1,2009-09-09T00:00:00Z,26.5255,-82.0032,2.45,27.12,1111122 
SCCF RECON,ioos:station:SCCF:13:1,2009-09-09T01:00:00Z,26.5255,-82.0032,2.4,20.21,1111122 
SCCF RECON,ioos:station:SCCF:13:1,2009-09-09T02:00:00Z,26.5255,-82.0032,2.41,15.25,1111122 
SCCF RECON,ioos:station:SCCF:13:1,2009-09-09T03:00:00Z,26.5255,-82.0032,2.444,14.54,1111122 
SCCF RECON,ioos:station:SCCF:13:1,2009-09-09T04:00:00Z,26.5255,-82.0032,2.496,22.65,1111122 
SCCF RECON,ioos:station:SCCF:13:1,2009-09-09T05:00:00Z,26.5255,-82.0032,2.56,22.96,1111122 
SCCF RECON,ioos:station:SCCF:13:1,2009-09-09T06:00:00Z,26.5255,-82.0032,2.63,22.72,1111122 
SCCF RECON,ioos:station:SCCF:13:1,2009-09-09T07:00:00Z,26.5255,-82.0032,2.68,26.74,1111122 
SCCF RECON,ioos:station:SCCF:13:1,2009-09-09T08:00:00Z,26.5255,-82.0032,2.74,28.08,1111122 
SCCF RECON,ioos:station:SCCF:13:1,2009-09-09T09:00:00Z,26.5255,-82.0032,2.75,28.79,1111122 
SCCF RECON,ioos:station:SCCF:13:1,2009-09-09T10:00:00Z,26.5255,-82.0032,2.68,30.03,1111122 
SCCF RECON,ioos:station:SCCF:13:1,2009-09-09T11:00:00Z,26.5255,-82.0032,2.584,30.05,1111122 
SCCF RECON,ioos:station:SCCF:13:1,2009-09-09T12:00:00Z,26.5255,-82.0032,2.48,25.03,1111122 
SCCF RECON,ioos:station:SCCF:13:1,2009-09-09T13:00:00Z,26.5255,-82.0032,2.38,15.17,1111122 
SCCF RECON,ioos:station:SCCF:13:1,2009-09-09T14:00:00Z,26.5255,-82.0032,2.303,13.44,1111122 
SCCF RECON,ioos:station:SCCF:13:1,2009-09-09T15:00:00Z,26.5255,-82.0032,2.228,12.46,1111122 
SCCF RECON,ioos:station:SCCF:13:1,2009-09-09T16:00:00Z,26.5255,-82.0032,2.21,11.92,1111122 
SCCF RECON,ioos:station:SCCF:13:1,2009-09-09T17:00:00Z,26.5255,-82.0032,2.276,10.65,1111122 
SCCF RECON,ioos:station:SCCF:13:1,2009-09-09T18:00:00Z,26.5255,-82.0032,2.39,10.22,1111122 
SCCF RECON,ioos:station:SCCF:13:1,2009-09-09T19:00:00Z,26.5255,-82.0032,2.46,14.29,1111122 
SCCF RECON,ioos:station:SCCF:13:1,2009-09-09T20:00:00Z,26.5255,-82.0032,2.49,17.98,1111122 
SCCF RECON,ioos:station:SCCF:13:1,2009-09-09T21:00:00Z,26.5255,-82.0032,2.54,21.52,1111122 
SCCF RECON,ioos:station:SCCF:13:1,2009-09-09T22:00:00Z,26.5255,-82.0032,2.58,26.22,1111122 
SCCF RECON,ioos:station:SCCF:13:1,2009-09-09T23:00:00Z,26.5255,-82.0032,2.555,27.31,1111122 
SCCF RECON,ioos:station:SCCF:13:1,2009-09-10T00:00:00Z,26.5255,-82.0032,2.57,27.57,1111122 
SCCF RECON,ioos:station:SCCF:13:1,2009-09-10T01:00:00Z,26.5255,-82.0032,2.5,27.68,1111122 
SCCF RECON,ioos:station:SCCF:13:1,2009-09-10T02:00:00Z,26.5255,-82.0032,2.46,27.54,1111122 
SCCF RECON,ioos:station:SCCF:13:1,2009-09-10T03:00:00Z,26.5255,-82.0032,2.448,25.15,1111122 
SCCF RECON,ioos:station:SCCF:13:1,2009-09-10T04:00:00Z,26.5255,-82.0032,2.481,24.04,1111122 
SCCF RECON,ioos:station:SCCF:13:1,2009-09-10T05:00:00Z,26.5255,-82.0032,2.56,25.51,1111122 
SCCF RECON,ioos:station:SCCF:13:1,2009-09-10T06:00:00Z,26.5255,-82.0032,2.64,25.12,1111122 
SCCF RECON,ioos:station:SCCF:13:1,2009-09-10T07:00:00Z,26.5255,-82.0032,2.68,27.04,1111122 
SCCF RECON,ioos:station:SCCF:13:1,2009-09-10T08:00:00Z,26.5255,-82.0032,2.71,29.03,1111122 
SCCF RECON,ioos:station:SCCF:13:1,2009-09-10T09:00:00Z,26.5255,-82.0032,2.76,30.04,1111122 
SCCF RECON,ioos:station:SCCF:13:1,2009-09-10T10:00:00Z,26.5255,-82.0032,2.78,29.58,1111122 
SCCF RECON,ioos:station:SCCF:13:1,2009-09-10T11:00:00Z,26.5255,-82.0032,2.768,30.96,1111122 
SCCF RECON,ioos:station:SCCF:13:1,2009-09-10T12:00:00Z,26.5255,-82.0032,2.67,30.52,1111122 
SCCF RECON,ioos:station:SCCF:13:1,2009-09-10T13:00:00Z,26.5255,-82.0032,2.53,28.52,1111122 
SCCF RECON,ioos:station:SCCF:13:1,2009-09-10T14:00:00Z,26.5255,-82.0032,2.429,17.41,1111122 
SCCF RECON,ioos:station:SCCF:13:1,2009-09-10T15:00:00Z,26.5255,-82.0032,2.36,16.05,1111122 
SCCF RECON,ioos:station:SCCF:13:1,2009-09-10T16:00:00Z,26.5255,-82.0032,2.287,14.77,1111122 
SCCF RECON,ioos:station:SCCF:13:1,2009-09-10T17:00:00Z,26.5255,-82.0032,2.266,14.64,1111122 
SCCF RECON,ioos:station:SCCF:13:1,2009-09-10T18:00:00Z,26.5255,-82.0032,2.35,12.93,1111122 
SCCF RECON,ioos:station:SCCF:13:1,2009-09-10T19:00:00Z,26.5255,-82.0032,2.445,13.28,1111122 
SCCF RECON,ioos:station:SCCF:13:1,2009-09-10T20:00:00Z,26.5255,-82.0032,2.488,15.01,1111122 
SCCF RECON,ioos:station:SCCF:13:1,2009-09-10T21:00:00Z,26.5255,-82.0032,2.54,18.65,1111122 
SCCF RECON,ioos:station:SCCF:13:1,2009-09-10T22:00:00Z,26.5255,-82.0032,2.6,22.12,1111122 
SCCF RECON,ioos:station:SCCF:13:1,2009-09-10T23:00:00Z,26.5255,-82.0032,2.6,24.41,1111122 
SCCF RECON,ioos:station:SCCF:13:1,2009-09-11T00:00:00Z,26.5255,-82.0032,2.59,27.4,1111122 
SCCF RECON,ioos:station:SCCF:13:1,2009-09-11T01:00:00Z,26.5255,-82.0032,2.59,28.48,1111122 
SCCF RECON,ioos:station:SCCF:13:1,2009-09-11T02:00:00Z,26.5255,-82.0032,2.6,28.71,1111122 
SCCF RECON,ioos:station:SCCF:13:1,2009-09-11T03:00:00Z,26.5255,-82.0032,2.59,28.97,1111122 
SCCF RECON,ioos:station:SCCF:13:1,2009-09-11T04:00:00Z,26.5255,-82.0032,2.58,28.62,1111122 
SCCF RECON,ioos:station:SCCF:13:1,2009-09-11T05:00:00Z,26.5255,-82.0032,2.589,28.92,1111122 
SCCF RECON,ioos:station:SCCF:13:1,2009-09-11T06:00:00Z,26.5255,-82.0032,2.65,28.23,1111122 
SCCF RECON,ioos:station:SCCF:13:1,2009-09-11T07:00:00Z,26.5255,-82.0032,2.73,26.31,1111122 
SCCF RECON,ioos:station:SCCF:13:1,2009-09-11T08:00:00Z,26.5255,-82.0032,2.78,28.34,1111122 
SCCF RECON,ioos:station:SCCF:13:1,2009-09-11T09:00:00Z,26.5255,-82.0032,2.8,30.24,1111122 
SCCF RECON,ioos:station:SCCF:13:1,2009-09-11T10:00:00Z,26.5255,-82.0032,2.81,30.73,1111122 
SCCF RECON,ioos:station:SCCF:13:1,2009-09-11T11:00:00Z,26.5255,-82.0032,2.805,31.11,1111122 
SCCF RECON,ioos:station:SCCF:13:1,2009-09-11T12:00:00Z,26.5255,-82.0032,2.773,31.57,1111122 
SCCF RECON,ioos:station:SCCF:13:1,2009-09-11T13:00:00Z,26.5255,-82.0032,2.66,31.52,1111122 
SCCF RECON,ioos:station:SCCF:13:1,2009-09-11T14:00:00Z,26.5255,-82.0032,2.56,25.18,1111122 
SCCF RECON,ioos:station:SCCF:13:1,2009-09-11T15:00:00Z,26.5255,-82.0032,2.459,17.58,1111122 
SCCF RECON,ioos:station:SCCF:13:1,2009-09-11T16:00:00Z,26.5255,-82.0032,2.37,15.04,1111122 
SCCF RECON,ioos:station:SCCF:13:1,2009-09-11T17:00:00Z,26.5255,-82.0032,2.301,15.46,1111122 
SCCF RECON,ioos:station:SCCF:13:1,2009-09-11T18:00:00Z,26.5255,-82.0032,2.26,14.58,1111122 
SCCF RECON,ioos:station:SCCF:13:1,2009-09-11T19:00:00Z,26.5255,-82.0032,2.33,14.16,1111122 
SCCF RECON,ioos:station:SCCF:13:1,2009-09-11T20:00:00Z,26.5255,-82.0032,2.41,14.07,1111122 
SCCF RECON,ioos:station:SCCF:13:1,2009-09-11T21:00:00Z,26.5255,-82.0032,2.492,14.21,1111122 
SCCF RECON,ioos:station:SCCF:13:1,2009-09-11T22:00:00Z,26.5255,-82.0032,2.51,16.41,1111122 
SCCF RECON,ioos:station:SCCF:13:1,2009-09-11T23:00:00Z,26.5255,-82.0032,2.55,19.29,1111122 
SCCF RECON,ioos:station:SCCF:13:1,2009-09-12T00:00:00Z,26.5255,-82.0032,2.59,23.33,1111122 
SCCF RECON,ioos:station:SCCF:13:1,2009-09-12T01:00:00Z,26.5255,-82.0032,2.64,26.46,1111122 
SCCF RECON,ioos:station:SCCF:13:1,2009-09-12T02:00:00Z,26.5255,-82.0032,2.67,28.86,1111122 
SCCF RECON,ioos:station:SCCF:13:1,2009-09-12T03:00:00Z,26.5255,-82.0032,2.697,29.13,1111122 
SCCF RECON,ioos:station:SCCF:13:1,2009-09-12T04:00:00Z,26.5255,-82.0032,2.7,29.08,1111122 
SCCF RECON,ioos:station:SCCF:13:1,2009-09-12T05:00:00Z,26.5255,-82.0032,2.67,29.59,1111122 
SCCF RECON,ioos:station:SCCF:13:1,2009-09-12T06:00:00Z,26.5255,-82.0032,2.685,29.77,1111122 
SCCF RECON,ioos:station:SCCF:13:1,2009-09-12T07:00:00Z,26.5255,-82.0032,2.73,29.16,1111122 
SCCF RECON,ioos:station:SCCF:13:1,2009-09-12T08:00:00Z,26.5255,-82.0032,2.78,29.13,1111122 
SCCF RECON,ioos:station:SCCF:13:1,2009-09-12T09:00:00Z,26.5255,-82.0032,2.88,27.85,1111122 
SCCF RECON,ioos:station:SCCF:13:1,2009-09-12T10:00:00Z,26.5255,-82.0032,2.89,30.14,1111122 
SCCF RECON,ioos:station:SCCF:13:1,2009-09-12T11:00:00Z,26.5255,-82.0032,2.98,31.42,1111122 
SCCF RECON,ioos:station:SCCF:13:1,2009-09-12T12:00:00Z,26.5255,-82.0032,2.89,31.55,1111122 
SCCF RECON,ioos:station:SCCF:13:1,2009-09-12T13:00:00Z,26.5255,-82.0032,2.84,31.86,1111122 
SCCF RECON,ioos:station:SCCF:13:1,2009-09-12T14:00:00Z,26.5255,-82.0032,2.73,30.14,1111122 
SCCF RECON,ioos:station:SCCF:13:1,2009-09-12T15:00:00Z,26.5255,-82.0032,2.62,22.1,1111122 
SCCF RECON,ioos:station:SCCF:13:1,2009-09-12T16:00:00Z,26.5255,-82.0032,2.509,17.98,1111122 
SCCF RECON,ioos:station:SCCF:13:1,2009-09-12T17:00:00Z,26.5255,-82.0032,2.41,17.42,1111122 
SCCF RECON,ioos:station:SCCF:13:1,2009-09-12T18:00:00Z,26.5255,-82.0032,2.333,17.67,1111122 
SCCF RECON,ioos:station:SCCF:13:1,2009-09-12T19:00:00Z,26.5255,-82.0032,2.28,17.06,1111122 
SCCF RECON,ioos:station:SCCF:13:1,2009-09-12T20:00:00Z,26.5255,-82.0032,2.348,16.15,1111122 
SCCF RECON,ioos:station:SCCF:13:1,2009-09-12T21:00:00Z,26.5255,-82.0032,2.363,15.42,1111122 
SCCF RECON,ioos:station:SCCF:13:1,2009-09-12T22:00:00Z,26.5255,-82.0032,2.42,14.94,1111122 
SCCF RECON,ioos:station:SCCF:13:1,2009-09-12T23:00:00Z,26.5255,-82.0032,2.49,15.28,1111122 
SCCF RECON,ioos:station:SCCF:13:1,2009-09-13T00:00:00Z,26.5255,-82.0032,2.56,16.42,1111122 
SCCF RECON,ioos:station:SCCF:13:1,2009-09-13T01:00:00Z,26.5255,-82.0032,2.64,19.22,1111122 
SCCF RECON,ioos:station:SCCF:13:1,2009-09-13T02:00:00Z,26.5255,-82.0032,2.62,22.11,1111122 
SCCF RECON,ioos:station:SCCF:13:1,2009-09-13T03:00:00Z,26.5255,-82.0032,2.63,24.1,1111122 
SCCF RECON,ioos:station:SCCF:13:1,2009-09-13T04:00:00Z,26.5255,-82.0032,2.65,25.56,1111122 
SCCF RECON,ioos:station:SCCF:13:1,2009-09-13T05:00:00Z,26.5255,-82.0032,2.67,27.51,1111122 
SCCF RECON,ioos:station:SCCF:13:1,2009-09-13T06:00:00Z,26.5255,-82.0032,2.687,27.51,1111122 
SCCF RECON,ioos:station:SCCF:13:1,2009-09-13T07:00:00Z,26.5255,-82.0032,2.71,28.21,1111122 
SCCF RECON,ioos:station:SCCF:13:1,2009-09-13T08:00:00Z,26.5255,-82.0032,2.71,26.29,1111122 
SCCF RECON,ioos:station:SCCF:13:1,2009-09-13T09:00:00Z,26.5255,-82.0032,2.776,28.4,1111122 
SCCF RECON,ioos:station:SCCF:13:1,2009-09-13T10:00:00Z,26.5255,-82.0032,2.87,28.03,1111122 
SCCF RECON,ioos:station:SCCF:13:1,2009-09-13T11:00:00Z,26.5255,-82.0032,2.92,28.71,1111122 
SCCF RECON,ioos:station:SCCF:13:1,2009-09-13T12:00:00Z,26.5255,-82.0032,2.946,30.56,1111122 
SCCF RECON,ioos:station:SCCF:13:1,2009-09-13T13:00:00Z,26.5255,-82.0032,2.938,31.38,1111122 
SCCF RECON,ioos:station:SCCF:13:1,2009-09-13T14:00:00Z,26.5255,-82.0032,2.878,31.59,1111122 
SCCF RECON,ioos:station:SCCF:13:1,2009-09-13T15:00:00Z,26.5255,-82.0032,2.78,30.96,1111122 
SCCF RECON,ioos:station:SCCF:13:1,2009-09-13T16:00:00Z,26.5255,-82.0032,2.678,24.83,1111122 
SCCF RECON,ioos:station:SCCF:13:1,2009-09-13T17:00:00Z,26.5255,-82.0032,2.57,22.5,1111122 
SCCF RECON,ioos:station:SCCF:13:1,2009-09-13T18:00:00Z,26.5255,-82.0032,2.469,20.26,1111122 
SCCF RECON,ioos:station:SCCF:13:1,2009-09-13T19:00:00Z,26.5255,-82.0032,2.379,19.0,1111122 
SCCF RECON,ioos:station:SCCF:13:1,2009-09-13T20:00:00Z,26.5255,-82.0032,2.304,17.67,1111122 
SCCF RECON,ioos:station:SCCF:13:1,2009-09-13T21:00:00Z,26.5255,-82.0032,2.29,16.3,1111122 
SCCF RECON,ioos:station:SCCF:13:1,2009-09-13T22:00:00Z,26.5255,-82.0032,2.381,14.62,1111122 
SCCF RECON,ioos:station:SCCF:13:1,2009-09-13T23:00:00Z,26.5255,-82.0032,2.46,13.36,1111122 
SCCF RECON,ioos:station:SCCF:13:1,2009-09-14T00:00:00Z,26.5255,-82.0032,2.5,13.79,1111122 
SCCF RECON,ioos:station:SCCF:13:1,2009-09-14T01:00:00Z,26.5255,-82.0032,2.54,13.81,1111122 
SCCF RECON,ioos:station:SCCF:13:1,2009-09-14T02:00:00Z,26.5255,-82.0032,2.61,17.02,1111122 
SCCF RECON,ioos:station:SCCF:13:1,2009-09-14T03:00:00Z,26.5255,-82.0032,2.67,18.68,1111122 
SCCF RECON,ioos:station:SCCF:13:1,2009-09-14T04:00:00Z,26.5255,-82.0032,2.68,23.67,1111122 
SCCF RECON,ioos:station:SCCF:13:1,2009-09-14T05:00:00Z,26.5255,-82.0032,2.67,24.64,1111122 
SCCF RECON,ioos:station:SCCF:13:1,2009-09-14T06:00:00Z,26.5255,-82.0032,2.65,27.53,1111122 
SCCF RECON,ioos:station:SCCF:13:1,2009-09-14T07:00:00Z,26.5255,-82.0032,2.65,27.32,1111122 
SCCF RECON,ioos:station:SCCF:13:1,2009-09-14T08:00:00Z,26.5255,-82.0032,2.63,26.14,1111122 
SCCF RECON,ioos:station:SCCF:13:1,2009-09-14T09:00:00Z,26.5255,-82.0032,2.66,27.93,1111122 
SCCF RECON,ioos:station:SCCF:13:1,2009-09-14T10:00:00Z,26.5255,-82.0032,2.718,27.79,1111122 
SCCF RECON,ioos:station:SCCF:13:1,2009-09-14T11:00:00Z,26.5255,-82.0032,2.78,28.41,1111122 
SCCF RECON,ioos:station:SCCF:13:1,2009-09-14T12:00:00Z,26.5255,-82.0032,2.84,26.36,1111122 
SCCF RECON,ioos:station:SCCF:13:1,2009-09-14T13:00:00Z,26.5255,-82.0032,2.9,26.66,1111122 
SCCF RECON,ioos:station:SCCF:13:1,2009-09-14T14:00:00Z,26.5255,-82.0032,2.96,28.66,1111122 
SCCF RECON,ioos:station:SCCF:13:1,2009-09-14T15:00:00Z,26.5255,-82.0032,2.95,29.18,1111122 
SCCF RECON,ioos:station:SCCF:13:1,2009-09-14T16:00:00Z,26.5255,-82.0032,2.872,30.53,1111122 
SCCF RECON,ioos:station:SCCF:13:1,2009-09-14T17:00:00Z,26.5255,-82.0032,2.74,29.16,1111122 
SCCF RECON,ioos:station:SCCF:13:1,2009-09-14T18:00:00Z,26.5255,-82.0032,2.596,21.2,1111122 
SCCF RECON,ioos:station:SCCF:13:1,2009-09-14T19:00:00Z,26.5255,-82.0032,2.482,16.81,1111122 
SCCF RECON,ioos:station:SCCF:13:1,2009-09-14T20:00:00Z,26.5255,-82.0032,2.386,14.17,1111122 
SCCF RECON,ioos:station:SCCF:13:1,2009-09-14T21:00:00Z,26.5255,-82.0032,2.329,14.73,1111122 
SCCF RECON,ioos:station:SCCF:13:1,2009-09-14T22:00:00Z,26.5255,-82.0032,2.31,14.16,1111122 
SCCF RECON,ioos:station:SCCF:13:1,2009-09-14T23:00:00Z,26.5255,-82.0032,2.353,12.85,1111122 
SCCF RECON,ioos:station:SCCF:13:1,2009-09-15T00:00:00Z,26.5255,-82.0032,2.47,11.54,1111122 
SCCF RECON,ioos:station:SCCF:13:1,2009-09-15T01:00:00Z,26.5255,-82.0032,2.545,11.88,1111122 
SCCF RECON,ioos:station:SCCF:13:1,2009-09-15T02:00:00Z,26.5255,-82.0032,2.61,13.49,1111122 
SCCF RECON,ioos:station:SCCF:13:1,2009-09-15T03:00:00Z,26.5255,-82.0032,2.662,16.67,1111122 
SCCF RECON,ioos:station:SCCF:13:1,2009-09-15T04:00:00Z,26.5255,-82.0032,2.71,21.88,1111122 
SCCF RECON,ioos:station:SCCF:13:1,2009-09-15T05:00:00Z,26.5255,-82.0032,2.72,26.22,1111122 
SCCF RECON,ioos:station:SCCF:13:1,2009-09-15T06:00:00Z,26.5255,-82.0032,2.7,26.54,1111122 
SCCF RECON,ioos:station:SCCF:13:1,2009-09-15T07:00:00Z,26.5255,-82.0032,2.64,27.16,1111122 
SCCF RECON,ioos:station:SCCF:13:1,2009-09-15T08:00:00Z,26.5255,-82.0032,2.56,25.45,1111122 
SCCF RECON,ioos:station:SCCF:13:1,2009-09-15T09:00:00Z,26.5255,-82.0032,2.54,20.3,1111122 
SCCF RECON,ioos:station:SCCF:13:1,2009-09-15T10:00:00Z,26.5255,-82.0032,2.58,17.35,1111122 
SCCF RECON,ioos:station:SCCF:13:1,2009-09-15T11:00:00Z,26.5255,-82.0032,2.655,24.06,1111122 
SCCF RECON,ioos:station:SCCF:13:1,2009-09-15T12:00:00Z,26.5255,-82.0032,2.739,23.0,1111122 
SCCF RECON,ioos:station:SCCF:13:1,2009-09-15T13:00:00Z,26.5255,-82.0032,2.82,23.37,1111122 
SCCF RECON,ioos:station:SCCF:13:1,2009-09-15T14:00:00Z,26.5255,-82.0032,2.9,27.31,1111122 
SCCF RECON,ioos:station:SCCF:13:1,2009-09-15T15:00:00Z,26.5255,-82.0032,2.95,29.98,1111122 
SCCF RECON,ioos:station:SCCF:13:1,2009-09-15T16:00:00Z,26.5255,-82.0032,2.947,30.74,1111122 
SCCF RECON,ioos:station:SCCF:13:1,2009-09-15T17:00:00Z,26.5255,-82.0032,2.835,30.65,1111122 
SCCF RECON,ioos:station:SCCF:13:1,2009-09-15T18:00:00Z,26.5255,-82.0032,2.68,30.26,1111122 
SCCF RECON,ioos:station:SCCF:13:1,2009-09-15T19:00:00Z,26.5255,-82.0032,2.56,23.41,1111122 
SCCF RECON,ioos:station:SCCF:13:1,2009-09-15T20:00:00Z,26.5255,-82.0032,2.48,17.77,1111122 
SCCF RECON,ioos:station:SCCF:13:1,2009-09-15T21:00:00Z,26.5255,-82.0032,2.39,14.82,1111122 
SCCF RECON,ioos:station:SCCF:13:1,2009-09-15T22:00:00Z,26.5255,-82.0032,2.315,14.3,1111122 
SCCF RECON,ioos:station:SCCF:13:1,2009-09-15T23:00:00Z,26.5255,-82.0032,2.322,13.6,1111122 
SCCF RECON,ioos:station:SCCF:13:1,2009-09-16T00:00:00Z,26.5255,-82.0032,2.42,12.28,1111122 
SCCF RECON,ioos:station:SCCF:13:1,2009-09-16T01:00:00Z,26.5255,-82.0032,2.51,11.48,1111122 
SCCF RECON,ioos:station:SCCF:13:1,2009-09-16T02:00:00Z,26.5255,-82.0032,2.6,11.91,1111122 
SCCF RECON,ioos:station:SCCF:13:1,2009-09-16T03:00:00Z,26.5255,-82.0032,2.68,15.14,1111122 
SCCF RECON,ioos:station:SCCF:13:1,2009-09-16T04:00:00Z,26.5255,-82.0032,2.75,20.86,1111122 
SCCF RECON,ioos:station:SCCF:13:1,2009-09-16T05:00:00Z,26.5255,-82.0032,2.772,25.88,1111122 
SCCF RECON,ioos:station:SCCF:13:1,2009-09-16T06:00:00Z,26.5255,-82.0032,2.77,27.55,1111122 
SCCF RECON,ioos:station:SCCF:13:1,2009-09-16T07:00:00Z,26.5255,-82.0032,2.73,28.07,1111122 
SCCF RECON,ioos:station:SCCF:13:1,2009-09-16T08:00:00Z,26.5255,-82.0032,2.64,28.11,1111122 
SCCF RECON,ioos:station:SCCF:13:1,2009-09-16T09:00:00Z,26.5255,-82.0032,2.55,24.97,1111122 
SCCF RECON,ioos:station:SCCF:13:1,2009-09-16T10:00:00Z,26.5255,-82.0032,2.5,15.67,1111122 
SCCF RECON,ioos:station:SCCF:13:1,2009-09-16T11:00:00Z,26.5255,-82.0032,2.544,13.13,1111122 
SCCF RECON,ioos:station:SCCF:13:1,2009-09-16T12:00:00Z,26.5255,-82.0032,2.67,15.16,1111122 
SCCF RECON,ioos:station:SCCF:13:1,2009-09-16T13:00:00Z,26.5255,-82.0032,2.793,21.71,1111122 
SCCF RECON,ioos:station:SCCF:13:1,2009-09-16T14:00:00Z,26.5255,-82.0032,2.868,24.78,1111122 
SCCF RECON,ioos:station:SCCF:13:1,2009-09-16T15:00:00Z,26.5255,-82.0032,2.927,27.84,1111122 
SCCF RECON,ioos:station:SCCF:13:1,2009-09-16T16:00:00Z,26.5255,-82.0032,2.979,30.57,1111122 
SCCF RECON,ioos:station:SCCF:13:1,2009-09-16T17:00:00Z,26.5255,-82.0032,2.97,30.89,1111122 
SCCF RECON,ioos:station:SCCF:13:1,2009-09-16T18:00:00Z,26.5255,-82.0032,2.883,30.77,1111122 
SCCF RECON,ioos:station:SCCF:13:1,2009-09-16T19:00:00Z,26.5255,-82.0032,2.73,30.42,1111122 
SCCF RECON,ioos:station:SCCF:13:1,2009-09-16T20:00:00Z,26.5255,-82.0032,2.605,25.14,1111122 
SCCF RECON,ioos:station:SCCF:13:1,2009-09-16T21:00:00Z,26.5255,-82.0032,2.516,18.91,1111122 
SCCF RECON,ioos:station:SCCF:13:1,2009-09-16T22:00:00Z,26.5255,-82.0032,2.41,16.97,1111122 
SCCF RECON,ioos:station:SCCF:13:1,2009-09-16T23:00:00Z,26.5255,-82.0032,2.34,14.64,1111122 
SCCF RECON,ioos:station:SCCF:13:1,2009-09-17T00:00:00Z,26.5255,-82.0032,2.34,13.76,1111122 
SCCF RECON,ioos:station:SCCF:13:1,2009-09-17T01:00:00Z,26.5255,-82.0032,2.47,11.38,1111122 
SCCF RECON,ioos:station:SCCF:13:1,2009-09-17T02:00:00Z,26.5255,-82.0032,2.61,11.41,1111122 
SCCF RECON,ioos:station:SCCF:13:1,2009-09-17T03:00:00Z,26.5255,-82.0032,2.682,14.94,1111122 
SCCF RECON,ioos:station:SCCF:13:1,2009-09-17T04:00:00Z,26.5255,-82.0032,2.75,18.88,1111122 
SCCF RECON,ioos:station:SCCF:13:1,2009-09-17T05:00:00Z,26.5255,-82.0032,2.8,24.63,1111122 
SCCF RECON,ioos:station:SCCF:13:1,2009-09-17T06:00:00Z,26.5255,-82.0032,2.79,27.72,1111122 
SCCF RECON,ioos:station:SCCF:13:1,2009-09-17T07:00:00Z,26.5255,-82.0032,2.71,28.3,1111122 
SCCF RECON,ioos:station:SCCF:13:1,2009-09-17T08:00:00Z,26.5255,-82.0032,2.602,27.87,1111122 
SCCF RECON,ioos:station:SCCF:13:1,2009-09-17T09:00:00Z,26.5255,-82.0032,2.51,21.75,1111122 
SCCF RECON,ioos:station:SCCF:13:1,2009-09-17T10:00:00Z,26.5255,-82.0032,2.421,13.18,1111122 
SCCF RECON,ioos:station:SCCF:13:1,2009-09-17T11:00:00Z,26.5255,-82.0032,2.39,12.47,1111122 
SCCF RECON,ioos:station:SCCF:13:1,2009-09-17T12:00:00Z,26.5255,-82.0032,2.458,10.69,1111122 
SCCF RECON,ioos:station:SCCF:13:1,2009-09-17T13:00:00Z,26.5255,-82.0032,2.613,10.67,1111122 
SCCF RECON,ioos:station:SCCF:13:1,2009-09-17T14:00:00Z,26.5255,-82.0032,2.74,18.0,1111122 
SCCF RECON,ioos:station:SCCF:13:1,2009-09-17T15:00:00Z,26.5255,-82.0032,2.82,23.03,1111122 
SCCF RECON,ioos:station:SCCF:13:1,2009-09-17T16:00:00Z,26.5255,-82.0032,2.898,28.02,1111122 
SCCF RECON,ioos:station:SCCF:13:1,2009-09-17T17:00:00Z,26.5255,-82.0032,2.939,30.09,1111122 
SCCF RECON,ioos:station:SCCF:13:1,2009-09-17T18:00:00Z,26.5255,-82.0032,2.925,30.1,1111122 
SCCF RECON,ioos:station:SCCF:13:1,2009-09-17T19:00:00Z,26.5255,-82.0032,2.83,30.28,1111122 
SCCF RECON,ioos:station:SCCF:13:1,2009-09-17T20:00:00Z,26.5255,-82.0032,2.69,29.91,1111122 
SCCF RECON,ioos:station:SCCF:13:1,2009-09-17T21:00:00Z,26.5255,-82.0032,2.572,25.54,1111122 
SCCF RECON,ioos:station:SCCF:13:1,2009-09-17T22:00:00Z,26.5255,-82.0032,2.48,18.39,1111122 
SCCF RECON,ioos:station:SCCF:13:1,2009-09-17T23:00:00Z,26.5255,-82.0032,2.399,14.78,1111122 
SCCF RECON,ioos:station:SCCF:13:1,2009-09-18T00:00:00Z,26.5255,-82.0032,2.349,12.98,1111122 
SCCF RECON,ioos:station:SCCF:13:1,2009-09-18T01:00:00Z,26.5255,-82.0032,2.43,12.22,1111122 
SCCF RECON,ioos:station:SCCF:13:1,2009-09-18T02:00:00Z,26.5255,-82.0032,2.581,11.87,1111122 
SCCF RECON,ioos:station:SCCF:13:1,2009-09-18T03:00:00Z,26.5255,-82.0032,2.69,16.28,1111122 
SCCF RECON,ioos:station:SCCF:13:1,2009-09-18T04:00:00Z,26.5255,-82.0032,2.75,19.81,1111122 
SCCF RECON,ioos:station:SCCF:13:1,2009-09-18T05:00:00Z,26.5255,-82.0032,2.817,23.9,1111122 
SCCF RECON,ioos:station:SCCF:13:1,2009-09-18T06:00:00Z,26.5255,-82.0032,2.82,28.17,1111122 
SCCF RECON,ioos:station:SCCF:13:1,2009-09-18T07:00:00Z,26.5255,-82.0032,2.753,28.74,1111122 
SCCF RECON,ioos:station:SCCF:13:1,2009-09-18T08:00:00Z,26.5255,-82.0032,2.65,29.11,1111122 
SCCF RECON,ioos:station:SCCF:13:1,2009-09-18T09:00:00Z,26.5255,-82.0032,2.5,24.77,1111122 
SCCF RECON,ioos:station:SCCF:13:1,2009-09-18T10:00:00Z,26.5255,-82.0032,2.42,14.66,1111122 
SCCF RECON,ioos:station:SCCF:13:1,2009-09-18T11:00:00Z,26.5255,-82.0032,2.35,13.39,1111122 
SCCF RECON,ioos:station:SCCF:13:1,2009-09-18T12:00:00Z,26.5255,-82.0032,2.31,11.68,1111122 
SCCF RECON,ioos:station:SCCF:13:1,2009-09-18T13:00:00Z,26.5255,-82.0032,2.39,10.29,1111122 
SCCF RECON,ioos:station:SCCF:13:1,2009-09-18T14:00:00Z,26.5255,-82.0032,2.576,10.17,1111122 
SCCF RECON,ioos:station:SCCF:13:1,2009-09-18T15:00:00Z,26.5255,-82.0032,2.705,15.04,1111122 
SCCF RECON,ioos:station:SCCF:13:1,2009-09-18T16:00:00Z,26.5255,-82.0032,2.789,22.77,1111122 
SCCF RECON,ioos:station:SCCF:13:1,2009-09-18T17:00:00Z,26.5255,-82.0032,2.849,27.85,1111122 
SCCF RECON,ioos:station:SCCF:13:1,2009-09-18T18:00:00Z,26.5255,-82.0032,2.879,29.08,1111122 
SCCF RECON,ioos:station:SCCF:13:1,2009-09-18T19:00:00Z,26.5255,-82.0032,2.861,29.18,1111122 
SCCF RECON,ioos:station:SCCF:13:1,2009-09-18T20:00:00Z,26.5255,-82.0032,2.77,29.28,1111122 
SCCF RECON,ioos:station:SCCF:13:1,2009-09-18T21:00:00Z,26.5255,-82.0032,2.64,28.27,1111122 
SCCF RECON,ioos:station:SCCF:13:1,2009-09-18T22:00:00Z,26.5255,-82.0032,2.53,24.23,1111122 
SCCF RECON,ioos:station:SCCF:13:1,2009-09-18T23:00:00Z,26.5255,-82.0032,2.452,18.5,1111122 
SCCF RECON,ioos:station:SCCF:13:1,2009-09-19T00:00:00Z,26.5255,-82.0032,2.389,14.65,1111122 
SCCF RECON,ioos:station:SCCF:13:1,2009-09-19T01:00:00Z,26.5255,-82.0032,2.392,12.12,1111122 
SCCF RECON,ioos:station:SCCF:13:1,2009-09-19T02:00:00Z,26.5255,-82.0032,2.57,11.57,1111122 
SCCF RECON,ioos:station:SCCF:13:1,2009-09-19T03:00:00Z,26.5255,-82.0032,2.69,17.59,1111122 
SCCF RECON,ioos:station:SCCF:13:1,2009-09-19T04:00:00Z,26.5255,-82.0032,2.77,21.78,1111122 
SCCF RECON,ioos:station:SCCF:13:1,2009-09-19T05:00:00Z,26.5255,-82.0032,2.82,24.94,1111122 
SCCF RECON,ioos:station:SCCF:13:1,2009-09-19T06:00:00Z,26.5255,-82.0032,2.85,28.55,1111122 
SCCF RECON,ioos:station:SCCF:13:1,2009-09-19T07:00:00Z,26.5255,-82.0032,2.831,29.04,1111122 
SCCF RECON,ioos:station:SCCF:13:1,2009-09-19T08:00:00Z,26.5255,-82.0032,2.758,29.11,1111122 
SCCF RECON,ioos:station:SCCF:13:1,2009-09-19T09:00:00Z,26.5255,-82.0032,2.61,28.96,1111122 
SCCF RECON,ioos:station:SCCF:13:1,2009-09-19T10:00:00Z,26.5255,-82.0032,2.49,19.39,1111122 
SCCF RECON,ioos:station:SCCF:13:1,2009-09-19T11:00:00Z,26.5255,-82.0032,2.42,15.51,1111122 
SCCF RECON,ioos:station:SCCF:13:1,2009-09-19T12:00:00Z,26.5255,-82.0032,2.34,13.55,1111122 
SCCF RECON,ioos:station:SCCF:13:1,2009-09-19T13:00:00Z,26.5255,-82.0032,2.31,12.42,1111122 